QPF
0.00 0.00 0.00 0.00 0.00 0.00 0.00 0.00 0.00 0.00 0.00 0.00 0.00 0.00 0.00 0.00 0.00 0.00 0.00 0.00 0.00 0.00 0.00 0.00 0.00 0.00 0.00 0.00 0.00 0.00 0.00 0.00 0.00 0.00 0.00 0.00 0.00 0.00 0.00 0.00 0.00 0.00 0.01
0.00 0.00 0.00 0.00 0.00 0.00 0.00 0.00 0.00 0.00 0.00 0.00 0.00 0.00 0.00 0.00 0.00 0.00 0.00 0.00 0.00 0.00 0.00 0.00 0.00 0.00 0.00 0.00 0.00 0.00 0.00 0.00 0.00 0.00 0.00 0.00 0.00 0.00 0.00 0.00 0.00 0.00 0.01
0.00 0.00 0.00 0.00 0.00 0.00 0.00 0.00 0.00 0.00 0.00 0.00 0.00 0.00 0.00 0.00 0.00 0.00 0.00 0.00 0.00 0.00 0.00 0.00 0.00 0.00 0.00 0.00 0.00 0.00 0.00 0.00 0.00 0.00 0.00 0.01 0.00 0.00 0.00 0.00 0.00 0.00 0.01
0.00 0.00 0.00 0.00 0.00 0.00 0.00 0.00 0.00 0.00 0.00 0.00 0.00 0.00 0.00 0.00 0.00 0.00 0.00 0.00 0.00 0.00 0.00 0.00 0.00 0.00 0.00 0.00 0.00 0.00 0.00 0.00 0.00 0.00 0.00 0.00 0.00 0.01 0.00 0.00 0.00 0.00 0.00
0.00 0.00 0.00 0.00 0.00 0.00 0.00 0.00 0.00 0.00 0.00 0.00 0.00 0.00 0.00 0.00 0.00 0.00 0.00 0.00 0.00 0.00 0.00 0.00 0.00 0.00 0.00 0.00 0.00 0.00 0.00 0.00 0.00 0.00 0.00 0.00 0.00 0.00 0.01 0.00 0.00 0.00 0.00
0.00 0.00 0.00 0.00 0.00 0.00 0.00 0.00 0.00 0.00 0.00 0.00 0.00 0.00 0.00 0.00 0.00 0.00 0.00 0.00 0.00 0.00 0.00 0.00 0.00 0.00 0.00 0.00 0.00 0.00 0.00 0.00 0.00 0.00 0.00 0.00 0.02 0.01 0.01 0.01 0.00 0.00 0.00
0.00 0.00 0.00 0.00 0.00 0.00 0.00 0.00 0.00 0.00 0.00 0.00 0.00 0.00 0.00 0.00 0.00 0.00 0.00 0.00 0.00 0.00 0.00 0.00 0.00 0.00 0.00 0.00 0.00 0.00 0.00 0.00 0.00 0.00 0.00 0.00 0.00 0.01 0.02 0.02 0.02 0.00 0.00
0.00 0.00 0.00 0.00 0.00 0.00 0.00 0.00 0.00 0.00 0.00 0.00 0.00 0.00 0.00 0.00 0.00 0.00 0.00 0.00 0.00 0.00 0.00 0.00 0.00 0.00 0.00 0.00 0.00 0.00 0.00 0.00 0.00 0.00 0.00 0.00 0.00 0.01 0.02 0.03 0.04 0.02 0.00
0.00 0.00 0.00 0.00 0.00 0.00 0.00 0.00 0.00 0.00 0.00 0.00 0.00 0.00 0.00 0.00 0.00 0.00 0.00 0.00 0.00 0.00 0.00 0.00 0.00 0.00 0.00 0.00 0.00 0.00 0.00 0.00 0.00 0.00 0.00 0.00 0.00 0.00 0.01 0.02 0.04 0.05 0.03
0.00 0.00 0.00 0.00 0.00 0.00 0.00 0.00 0.00 0.00 0.00 0.00 0.00 0.00 0.00 0.00 0.00 0.00 0.00 0.00 0.00 0.00 0.00 0.00 0.00 0.00 0.00 0.00 0.00 0.00 0.00 0.00 0.00 0.00 0.00 0.00 0.00 0.00 0.00 0.01 0.03 0.04 0.05
0.00 0.00 0.00 0.00 0.00 0.00 0.00 0.00 0.00 0.00 0.00 0.00 0.00 0.00 0.00 0.00 0.00 0.00 0.00 0.00 0.00 0.00 0.00 0.00 0.00 0.00 0.00 0.00 0.00 0.00 0.00 0.00 0.00 0.00 0.00 0.00 0.00 0.00 0.00 0.01 0.03 0.02 0.03
0.00 0.00 0.00 0.00 0.00 0.00 0.00 0.00 0.00 0.00 0.00 0.00 0.00 0.00 0.00 0.00 0.00 0.00 0.00 0.00 0.00 0.00 0.00 0.00 0.00 0.00 0.00 0.00 0.00 0.00 0.00 0.00 0.00 0.00 0.00 0.00 0.00 0.00 0.01 0.01 0.01 0.02 0.03
0.00 0.00 0.00 0.00 0.00 0.00 0.00 0.00 0.00 0.00 0.00 0.00 0.00 0.00 0.00 0.00 0.00 0.00 0.00 0.00 0.00 0.00 0.00 0.00 0.00 0.00 0.00 0.00 0.00 0.00 0.00 0.00 0.00 0.00 0.00 0.00 0.00 0.00 0.00 0.02 0.02 0.02 0.03
0.00 0.00 0.00 0.00 0.00 0.00 0.00 0.00 0.00 0.00 0.00 0.00 0.00 0.00 0.00 0.00 0.00 0.00 0.00 0.00 0.00 0.00 0.00 0.00 0.00 0.00 0.00 0.00 0.00 0.00 0.00 0.00 0.00 0.00 0.00 0.00 0.02 0.02 0.01 0.01 0.02 0.02 0.02
0.00 0.00 0.00 0.02 0.03 0.01 0.00 0.00 0.00 0.00 0.00 0.00 0.00 0.00 0.00 0.00 0.00 0.00 0.00 0.00 0.00 0.00 0.00 0.00 0.00 0.00 0.00 0.00 0.00 0.00 0.00 0.00 0.00 0.00 0.00 0.00 0.00 0.00 0.01 0.02 0.02 0.02 0.01
0.01 0.02 0.08 0.11 0.06 0.00 0.00 0.00 0.00 0.00 0.00 0.00 0.00 0.00 0.00 0.00 0.00 0.00 0.00 0.00 0.00 0.00 0.00 0.00 0.00 0.00 0.00 0.00 0.00 0.00 0.00 0.00 0.00 0.00 0.00 0.00 0.00 0.00 0.00 0.01 0.02 0.03 0.04
0.00 0.03 0.05 0.04 0.01 0.00 0.00 0.00 0.00 0.00 0.00 0.00 0.00 0.00 0.00 0.00 0.00 0.00 0.00 0.00 0.00 0.00 0.00 0.00 0.00 0.00 0.00 0.00 0.00 0.00 0.00 0.00 0.00 0.00 0.00 0.00 0.00 0.00 0.00 0.00 0.00 0.00 0.01
0.00 0.00 0.00 0.00 0.00 0.00 0.00 0.00 0.00 0.00 0.00 0.00 0.00 0.00 0.00 0.00 0.00 0.00 0.00 0.00 0.00 0.00 0.00 0.00 0.00 0.00 0.00 0.00 0.00 0.00 0.00 0.00 0.00 0.00 0.00 0.00 0.00 0.00 0.00 0.00 0.00 0.00 0.00
0.00 0.00 0.00 0.00 0.00 0.00 0.00 0.00 0.00 0.00 0.00 0.00 0.00 0.00 0.00 0.00 0.00 0.00 0.00 0.00 0.00 0.00 0.00 0.00 0.00 0.00 0.00 0.00 0.00 0.00 0.00 0.00 0.00 0.00 0.00 0.00 0.00 0.00 0.00 0.00 0.00 0.00 0.00
0.00 0.00 0.00 0.00 0.00 0.00 0.00 0.00 0.00 0.00 0.00 0.00 0.00 0.00 0.00 0.00 0.00 0.00 0.00 0.00 0.00 0.00 0.00 0.00 0.00 0.00 0.00 0.00 0.00 0.00 0.00 0.00 0.00 0.00 0.00 0.00 0.00 0.00 0.00 0.00 0.00 0.00 0.00
0.00 0.00 0.00 0.00 0.00 0.00 0.00 0.00 0.00 0.00 0.00 0.00 0.00 0.00 0.00 0.00 0.00 0.00 0.00 0.00 0.00 0.00 0.00 0.00 0.00 0.00 0.00 0.00 0.00 0.00 0.00 0.00 0.00 0.00 0.00 0.00 0.00 0.00 0.00 0.00 0.00 0.00 0.00
0.00 0.00 0.00 0.00 0.00 0.00 0.00 0.00 0.00 0.00 0.00 0.00 0.00 0.00 0.00 0.00 0.00 0.00 0.00 0.00 0.00 0.00 0.00 0.00 0.00 0.00 0.00 0.00 0.00 0.00 0.00 0.00 0.00 0.00 0.00 0.00 0.00 0.00 0.00 0.00 0.00 0.00 0.00
0.00 0.00 0.00 0.00 0.00 0.00 0.00 0.00 0.00 0.00 0.00 0.00 0.00 0.00 0.00 0.00 0.00 0.00 0.00 0.00 0.00 0.00 0.00 0.00 0.00 0.00 0.00 0.00 0.00 0.00 0.00 0.00 0.00 0.00 0.00 0.00 0.00 0.00 0.00 0.00 0.00 0.00 0.00
0.00 0.00 0.00 0.00 0.00 0.00 0.00 0.00 0.00 0.00 0.00 0.00 0.00 0.00 0.00 0.00 0.00 0.00 0.00 0.00 0.00 0.00 0.00 0.00 0.00 0.00 0.00 0.00 0.00 0.00 0.00 0.00 0.00 0.00 0.00 0.00 0.00 0.00 0.00 0.00 0.00 0.00 0.00
0.00 0.00 0.00 0.00 0.00 0.00 0.00 0.00 0.00 0.00 0.00 0.00 0.00 0.00 0.00 0.00 0.00 0.00 0.00 0.00 0.00 0.00 0.00 0.00 0.00 0.00 0.00 0.00 0.00 0.00 0.00 0.00 0.00 0.00 0.00 0.00 0.00 0.00 0.00 0.00 0.00 0.00 0.00
0.00 0.00 0.00 0.00 0.00 0.00 0.00 0.00 0.00 0.00 0.00 0.00 0.00 0.00 0.00 0.00 0.00 0.00 0.00 0.00 0.00 0.00 0.00 0.00 0.00 0.00 0.00 0.00 0.00 0.00 0.00 0.00 0.00 0.00 0.00 0.00 0.00 0.00 0.00 0.00 0.00 0.00 0.00
MSLP
1017.52 1018.38 1019.02 1019.81 1020.62 1021.20 1021.42 1021.73 1021.74 1021.45 1021.17 1021.31 1021.37 1021.47 1021.66 1021.56 1021.58 1021.65 1021.63 1021.59 1021.50 1021.48 1021.91 1022.17 1021.98 1021.74 1021.45 1021.20 1020.89 1020.46 1019.72 1018.92 1018.31 1016.79 1015.16 1013.39 1012.14 1012.21 1012.33 1011.65 1010.59 1009.95 1009.06
1017.65 1018.70 1019.67 1020.27 1020.86 1021.31 1021.71 1021.95 1022.16 1022.08 1021.93 1021.72 1021.97 1021.99 1021.94 1022.49 1022.34 1022.27 1022.19 1022.10 1021.98 1022.19 1022.28 1022.53 1022.36 1022.06 1021.82 1021.61 1021.32 1020.90 1020.40 1019.90 1019.39 1018.57 1016.67 1014.59 1012.85 1011.88 1012.35 1011.69 1011.53 1010.72 1010.11
1017.03 1018.30 1019.24 1020.02 1020.70 1021.42 1022.01 1022.17 1022.36 1022.53 1022.60 1022.52 1022.26 1022.27 1022.30 1022.55 1022.88 1023.11 1023.02 1022.81 1022.55 1022.80 1022.95 1022.91 1022.78 1022.52 1022.08 1021.90 1021.74 1021.25 1020.89 1020.52 1020.17 1019.66 1019.09 1017.66 1016.30 1014.64 1011.75 1011.84 1011.15 1011.28 1010.62
1017.22 1018.53 1019.61 1020.48 1021.06 1021.56 1021.86 1022.16 1022.45 1022.85 1023.10 1022.86 1022.88 1023.14 1023.46 1023.60 1023.77 1023.71 1023.74 1023.45 1023.30 1023.34 1023.39 1023.27 1023.03 1022.75 1022.52 1022.32 1022.03 1021.54 1021.40 1021.22 1020.49 1020.10 1019.84 1019.94 1019.31 1017.53 1014.02 1011.69 1011.64 1011.29 1011.22
1016.96 1018.37 1019.51 1020.43 1021.11 1021.71 1022.22 1022.67 1022.85 1022.86 1023.09 1023.43 1023.28 1023.36 1023.90 1024.13 1024.10 1024.06 1024.11 1024.07 1023.89 1023.83 1023.79 1023.71 1023.46 1023.31 1023.12 1022.79 1022.60 1022.15 1021.84 1021.31 1021.05 1020.80 1020.40 1019.81 1019.20 1018.43 1017.22 1013.94 1011.47 1011.13 1011.17
1017.94 1019.32 1020.32 1021.02 1021.86 1022.31 1022.63 1022.77 1023.13 1023.32 1023.32 1023.46 1023.92 1023.90 1024.04 1024.26 1024.47 1024.38 1024.36 1024.43 1024.36 1024.24 1024.09 1024.11 1024.03 1023.67 1023.69 1023.35 1022.88 1022.75 1022.14 1021.58 1021.39 1021.10 1020.86 1020.45 1019.96 1019.05 1018.25 1016.65 1014.61 1012.85 1010.60
1019.22 1020.38 1021.16 1021.98 1022.58 1022.90 1023.56 1023.59 1023.71 1023.93 1023.96 1023.81 1024.18 1024.29 1024.35 1024.38 1024.58 1024.61 1024.61 1024.80 1024.77 1024.55 1024.49 1024.52 1024.50 1024.32 1023.96 1023.61 1023.29 1022.81 1022.51 1022.09 1021.59 1021.26 1021.09 1020.73 1020.41 1019.73 1018.96 1017.85 1016.06 1013.67 1011.47
1019.78 1020.91 1021.77 1022.63 1023.42 1023.70 1024.07 1024.33 1024.46 1024.59 1024.48 1024.45 1024.59 1024.61 1024.56 1024.59 1024.70 1024.88 1024.95 1025.26 1025.09 1025.02 1025.13 1025.05 1024.89 1024.58 1024.22 1023.96 1023.50 1023.06 1022.81 1022.41 1021.98 1021.51 1021.28 1020.85 1020.39 1019.88 1019.48 1018.51 1017.20 1014.47 1012.39
1020.57 1021.40 1022.03 1023.00 1023.69 1024.24 1024.83 1024.91 1025.10 1025.25 1025.21 1025.13 1025.06 1025.00 1024.96 1024.77 1025.02 1025.22 1025.48 1025.46 1025.51 1025.51 1025.59 1025.43 1025.16 1024.90 1024.62 1024.30 1023.84 1023.58 1023.19 1022.79 1022.36 1021.81 1021.42 1020.95 1020.63 1019.90 1019.06 1018.51 1017.89 1016.70 1013.74
1020.66 1022.08 1023.15 1024.09 1023.98 1025.08 1025.31 1025.24 1025.52 1025.94 1026.00 1025.79 1025.57 1025.51 1025.37 1025.28 1025.42 1025.68 1025.89 1025.86 1026.00 1026.06 1025.90 1025.79 1025.54 1025.25 1025.26 1024.65 1024.22 1023.80 1023.45 1023.15 1022.74 1022.25 1021.73 1021.16 1020.57 1019.85 1019.26 1018.59 1017.77 1016.76 1015.20
1021.48 1022.55 1023.60 1024.61 1025.10 1025.38 1026.06 1026.07 1026.25 1026.40 1026.39 1026.23 1026.11 1025.93 1025.89 1025.83 1025.84 1026.06 1026.24 1026.19 1026.29 1026.42 1026.26 1026.11 1026.06 1025.87 1025.75 1025.21 1024.64 1024.17 1023.80 1023.47 1023.04 1022.63 1021.99 1021.48 1020.81 1020.10 1019.21 1018.34 1017.57 1016.41 1015.15
1021.76 1022.83 1023.97 1025.01 1025.53 1026.05 1026.40 1026.42 1026.69 1026.71 1026.57 1026.57 1026.34 1026.26 1026.28 1026.13 1026.17 1026.41 1026.43 1026.39 1026.44 1026.59 1026.66 1026.56 1026.56 1026.54 1026.30 1025.62 1025.13 1024.53 1024.29 1023.91 1023.42 1022.97 1022.24 1021.75 1020.98 1020.17 1019.47 1018.43 1017.37 1016.02 1015.01
1022.27 1023.50 1024.55 1025.25 1025.73 1026.32 1026.68 1026.75 1026.84 1026.89 1026.70 1026.63 1026.39 1026.42 1026.33 1026.36 1026.41 1026.48 1026.57 1026.53 1026.82 1026.97 1026.96 1027.02 1027.05 1026.89 1026.51 1025.99 1025.45 1025.10 1024.85 1024.39 1024.01 1023.57 1022.79 1022.30 1021.41 1020.40 1019.74 1018.87 1017.41 1016.30 1015.15
1022.04 1023.21 1024.37 1025.04 1025.66 1026.17 1026.48 1026.77 1026.79 1026.94 1026.71 1026.50 1026.43 1026.39 1026.35 1026.39 1026.30 1026.43 1026.62 1026.79 1026.99 1027.09 1027.09 1027.47 1027.60 1027.40 1026.94 1026.23 1025.69 1025.37 1025.04 1024.73 1024.48 1024.15 1023.57 1022.75 1021.81 1021.04 1020.22 1019.29 1018.01 1016.76 1015.64
1022.11 1022.90 1024.10 1024.93 1025.35 1025.69 1026.11 1026.38 1026.38 1026.43 1026.37 1026.36 1026.18 1026.22 1026.25 1026.24 1026.25 1026.32 1026.63 1026.87 1027.04 1027.15 1027.29 1028.00 1028.19 1027.79 1026.97 1026.22 1025.59 1025.29 1025.20 1025.10 1024.95 1024.67 1023.98 1023.23 1022.31 1021.46 1021.07 1019.98 1018.94 1017.61 1016.40
1021.02 1022.48 1023.47 1024.37 1024.72 1025.13 1025.43 1025.61 1025.57 1025.77 1025.93 1025.87 1026.07 1025.92 1026.06 1026.14 1026.23 1026.40 1026.62 1026.90 1027.28 1027.47 1027.63 1028.03 1028.05 1027.88 1027.27 1026.35 1025.69 1025.61 1025.67 1025.54 1025.34 1024.99 1024.44 1023.74 1022.89 1022.00 1021.53 1020.67 1019.52 1018.54 1017.37
1020.39 1021.55 1022.48 1023.37 1023.73 1024.18 1024.67 1025.04 1025.04 1025.13 1025.43 1025.68 1025.87 1025.94 1026.09 1026.27 1026.43 1026.61 1026.84 1027.08 1027.40 1027.59 1027.71 1027.76 1027.94 1027.81 1027.56 1026.72 1026.26 1026.02 1026.34 1025.94 1025.65 1025.35 1024.83 1024.08 1023.41 1022.59 1021.99 1021.13 1020.21 1019.30 1018.35
1019.62 1020.98 1022.00 1022.53 1022.88 1023.59 1024.21 1024.61 1024.85 1025.15 1025.56 1025.91 1026.03 1026.17 1026.37 1026.54 1026.77 1026.92 1027.11 1027.31 1027.49 1027.65 1027.79 1027.85 1027.87 1027.91 1027.58 1027.08 1026.74 1026.50 1026.79 1026.31 1025.98 1025.78 1025.27 1024.54 1023.71 1022.73 1022.09 1021.45 1020.72 1019.94 1019.08
1019.13 1020.19 1021.16 1022.05 1022.78 1023.57 1024.09 1024.68 1025.17 1025.59 1026.02 1026.30 1026.50 1026.61 1026.69 1026.97 1027.09 1027.30 1027.40 1027.51 1027.69 1027.81 1027.93 1027.91 1027.96 1028.04 1027.96 1027.47 1026.99 1026.81 1026.74 1026.52 1026.27 1026.19 1025.80 1024.74 1024.09 1023.14 1022.36 1021.84 1021.31 1020.74 1020.10
1018.86 1019.81 1021.05 1022.15 1023.05 1023.85 1024.39 1025.15 1025.94 1026.39 1026.98 1027.05 1026.99 1027.08 1027.24 1027.36 1027.54 1027.67 1027.80 1027.83 1027.88 1028.10 1028.15 1028.22 1028.23 1028.40 1028.41 1027.88 1027.37 1027.06 1027.04 1026.84 1026.55 1026.36 1025.70 1024.99 1024.27 1023.79 1022.98 1022.63 1022.28 1021.62 1021.06
1018.85 1020.06 1021.45 1022.71 1023.72 1024.43 1025.03 1026.14 1026.73 1027.39 1027.82 1027.65 1027.68 1027.87 1027.91 1027.93 1028.07 1028.19 1028.25 1028.33 1028.35 1028.49 1028.61 1028.57 1028.66 1028.75 1028.67 1028.67 1028.09 1027.62 1027.52 1027.37 1027.10 1026.73 1026.04 1025.42 1024.58 1024.21 1023.59 1023.30 1022.97 1022.83 1022.13
1019.33 1020.50 1021.98 1023.30 1024.24 1024.94 1025.53 1026.69 1027.45 1027.81 1027.93 1028.11 1028.34 1028.51 1028.50 1028.53 1028.61 1028.72 1028.81 1028.92 1029.01 1029.04 1029.19 1029.12 1029.19 1029.30 1029.44 1029.06 1028.81 1028.31 1027.97 1027.66 1027.62 1027.28 1026.59 1026.04 1025.32 1024.89 1024.51 1024.19 1023.66 1023.16 1022.57
1019.80 1020.87 1022.15 1023.51 1024.50 1025.20 1025.83 1026.85 1027.59 1027.78 1028.10 1028.48 1028.87 1028.87 1028.91 1028.95 1029.02 1029.14 1029.40 1029.73 1029.70 1029.83 1029.97 1030.05 1030.14 1030.14 1029.99 1029.98 1029.29 1028.88 1028.33 1027.89 1027.80 1027.47 1026.85 1026.46 1026.08 1025.78 1025.47 1024.61 1024.01 1023.64 1023.19
1020.14 1021.17 1022.38 1023.55 1024.53 1025.18 1025.85 1026.38 1026.96 1027.57 1028.08 1028.75 1029.03 1029.07 1029.18 1029.18 1029.22 1029.34 1029.59 1029.95 1030.60 1030.47 1030.47 1030.60 1030.74 1030.90 1030.39 1030.14 1030.10 1029.78 1029.35 1028.51 1028.24 1028.17 1028.01 1027.58 1026.75 1026.77 1026.43 1025.54 1025.04 1024.74 1024.38
1020.35 1021.31 1022.36 1023.35 1024.26 1024.90 1025.53 1026.01 1026.45 1027.01 1027.58 1028.08 1028.44 1028.58 1028.70 1028.95 1029.25 1029.26 1029.55 1029.60 1030.11 1030.06 1030.24 1030.57 1030.69 1030.67 1030.51 1029.87 1029.14 1028.66 1028.44 1028.00 1028.19 1028.26 1028.47 1027.87 1027.49 1027.18 1026.80 1026.36 1025.88 1025.39 1024.90
1020.45 1021.44 1022.29 1023.13 1023.94 1024.47 1024.95 1025.42 1025.86 1026.31 1026.72 1027.29 1027.58 1027.86 1028.16 1028.39 1028.73 1029.13 1029.34 1028.97 1029.28 1029.03 1029.12 1029.29 1030.23 1030.35 1029.52 1029.10 1028.78 1028.29 1027.71 1027.41 1027.63 1028.13 1028.97 1028.82 1028.52 1028.22 1027.89 1027.39 1026.79 1026.29 1025.84
Thickness
5622 5615 5608 5600 5592 5584 5583 5579 5578 5578 5578 5574 5570 5568 5564 5566 5564 5562 5560 5560 5559 5557 5551 5548 5548 5548 5549 5549 5550 5551 5555 5560 5565 5578 5591 5604 5614 5615 5613 5618 5629 5635 5644
5610 5602 5591 5584 5580 5575 5571 5567 5564 5562 5561 5562 5556 5553 5552 5547 5546 5545 5545 5544 5544 5540 5537 5534 5533 5533 5532 5532 5533 5535 5537 5538 5540 5547 5565 5585 5596 5603 5600 5605 5606 5615 5621
5604 5596 5588 5578 5570 5563 5557 5554 5551 5546 5543 5542 5542 5539 5537 5533 5529 5524 5525 5525 5526 5523 5519 5518 5516 5515 5516 5515 5514 5517 5518 5517 5518 5522 5526 5543 5555 5566 5591 5588 5596 5595 5602
5588 5580 5573 5563 5558 5549 5545 5542 5538 5530 5525 5526 5523 5519 5514 5511 5508 5507 5505 5506 5505 5505 5501 5500 5498 5498 5497 5495 5495 5497 5497 5496 5500 5502 5504 5502 5507 5524 5561 5578 5575 5580 5583
5582 5572 5559 5554 5545 5539 5530 5524 5523 5518 5515 5510 5508 5504 5498 5494 5492 5491 5489 5487 5487 5486 5483 5482 5481 5479 5478 5478 5477 5478 5478 5481 5482 5482 5483 5486 5491 5498 5509 5546 5565 5563 5565
5562 5549 5540 5534 5525 5519 5515 5513 5510 5502 5500 5497 5491 5488 5484 5480 5475 5474 5473 5470 5469 5469 5467 5464 5462 5463 5459 5459 5461 5458 5461 5464 5464 5465 5465 5467 5468 5474 5481 5496 5518 5537 5552
5539 5530 5521 5511 5505 5499 5493 5491 5490 5483 5481 5481 5476 5472 5469 5466 5461 5458 5456 5453 5452 5452 5450 5447 5444 5443 5442 5441 5442 5443 5443 5444 5447 5448 5447 5448 5448 5453 5458 5467 5483 5507 5529
5527 5515 5505 5495 5487 5483 5476 5472 5469 5463 5463 5463 5460 5457 5455 5452 5449 5444 5441 5437 5436 5434 5431 5429 5427 5426 5425 5424 5425 5425 5424 5425 5427 5429 5430 5431 5432 5435 5436 5442 5453 5480 5499
5510 5499 5492 5482 5474 5467 5459 5457 5454 5448 5447 5446 5445 5442 5440 5440 5435 5430 5424 5423 5419 5415 5414 5413 5411 5410 5409 5408 5408 5406 5405 5406 5406 5409 5411 5412 5413 5417 5423 5424 5425 5436 5465
5500 5483 5470 5463 5461 5450 5444 5443 5439 5434 5431 5430 5429 5428 5427 5426 5422 5415 5411 5408 5404 5401 5399 5397 5395 5394 5390 5390 5388 5387 5385 5384 5385 5386 5388 5390 5394 5398 5402 5405 5410 5415 5429
5476 5463 5452 5446 5440 5437 5430 5429 5424 5420 5418 5418 5416 5414 5412 5410 5407 5401 5398 5396 5391 5387 5384 5381 5377 5373 5369 5367 5366 5365 5363 5361 5361 5361 5365 5366 5371 5377 5384 5391 5396 5402 5413
5464 5452 5444 5434 5427 5420 5418 5418 5413 5410 5407 5404 5404 5401 5398 5397 5395 5389 5387 5383 5379 5373 5367 5363 5357 5350 5346 5345 5343 5344 5341 5340 5340 5341 5345 5347 5352 5359 5366 5375 5383 5392 5399
5450 5439 5430 5423 5419 5411 5407 5405 5403 5400 5398 5395 5395 5392 5391 5388 5385 5380 5376 5371 5364 5357 5350 5342 5335 5330 5327 5326 5325 5324 5324 5325 5325 5326 5330 5332 5338 5347 5352 5359 5370 5376 5385
5445 5432 5422 5418 5410 5403 5399 5397 5394 5390 5388 5387 5386 5385 5383 5380 5377 5371 5365 5357 5349 5342 5335 5325 5318 5313 5311 5311 5311 5311 5312 5313 5313 5313 5316 5321 5329 5335 5341 5346 5352 5360 5368
5435 5427 5416 5408 5405 5399 5394 5391 5390 5387 5384 5382 5383 5380 5377 5374 5370 5363 5354 5346 5338 5330 5322 5312 5305 5303 5302 5302 5304 5305 5304 5304 5304 5304 5307 5312 5318 5325 5328 5333 5336 5344 5354
5433 5423 5415 5406 5401 5396 5393 5393 5390 5384 5382 5381 5377 5376 5371 5367 5364 5358 5348 5339 5329 5321 5314 5307 5301 5298 5299 5300 5301 5300 5299 5299 5298 5298 5300 5303 5309 5314 5317 5322 5328 5332 5340
5435 5425 5415 5406 5404 5400 5396 5390 5387 5385 5381 5377 5372 5368 5365 5362 5359 5353 5345 5336 5325 5318 5313 5308 5302 5298 5297 5297 5297 5296 5295 5294 5294 5293 5295 5299 5301 5306 5308 5313 5319 5324 5329
5434 5420 5411 5410 5407 5400 5392 5387 5383 5379 5374 5368 5364 5361 5359 5357 5353 5347 5340 5333 5327 5321 5316 5311 5307 5302 5299 5297 5296 5294 5293 5292 5291 5291 5291 5292 5295 5301 5305 5308 5311 5315 5320
5429 5420 5413 5406 5400 5392 5387 5382 5376 5371 5365 5360 5357 5355 5354 5351 5347 5342 5336 5332 5327 5323 5319 5315 5310 5305 5301 5299 5298 5297 5295 5294 5292 5290 5289 5291 5291 5296 5299 5301 5303 5305 5308
5428 5418 5409 5400 5392 5384 5380 5370 5361 5357 5350 5350 5351 5350 5348 5346 5342 5337 5333 5330 5327 5322 5319 5315 5311 5305 5300 5299 5298 5297 5295 5293 5292 5290 5291 5291 5292 5292 5296 5295 5295 5296 5297
5422 5413 5401 5390 5381 5375 5369 5356 5349 5343 5341 5344 5344 5342 5341 5339 5336 5332 5329 5327 5324 5320 5316 5314 5309 5304 5299 5295 5294 5294 5291 5289 5288 5288 5289 5289 5291 5291 5293 5292 5292 5289 5291
5415 5406 5392 5381 5372 5366 5359 5347 5342 5339 5339 5337 5335 5334 5333 5334 5331 5327 5325 5322 5319 5316 5312 5309 5305 5300 5294 5292 5290 5289 5287 5285 5282 5281 5282 5282 5283 5284 5283 5282 5283 5285 5286
5407 5399 5388 5375 5366 5360 5354 5343 5338 5338 5335 5332 5328 5327 5327 5326 5325 5321 5318 5314 5312 5308 5305 5300 5296 5291 5288 5285 5283 5282 5281 5280 5278 5276 5276 5274 5274 5272 5272 5274 5275 5276 5276
5398 5392 5381 5370 5362 5358 5352 5347 5342 5338 5333 5329 5325 5322 5321 5320 5319 5317 5313 5308 5301 5297 5294 5289 5284 5281 5279 5278 5277 5276 5275 5273 5271 5269 5267 5265 5264 5263 5262 5263 5262 5260 5259
5394 5386 5377 5369 5361 5357 5352 5347 5343 5338 5334 5330 5327 5326 5323 5319 5314 5311 5308 5304 5301 5298 5289 5284 5280 5274 5269 5271 5275 5274 5272 5269 5266 5262 5258 5256 5254 5252 5249 5247 5246 5246 5245
5389 5381 5374 5368 5362 5358 5353 5349 5345 5341 5337 5333 5330 5326 5322 5319 5315 5309 5303 5304 5301 5297 5293 5288 5282 5278 5275 5272 5269 5267 5266 5263 5257 5251 5242 5239 5235 5234 5233 5231 5229 5227 5226